Flag for Poland Weather past 2 weeks in Lódz, Poland

Now
62 °F

Passing clouds.


Feels Like: 62 °F
Forecast: 54 / 65 °F
Wind: 2 mph from East

Location: Lodz

Current Time: Sep 3, 2015 at 11:43:52 PM

Latest Report: Sep 3, 2015 at 10:00 PM


Visibility: 13 mi

Pressure: 29.95 "Hg

Humidity: 59%

Dew point: 48 °F

Location of LódzLocation

Historic Weather in Lódz — Graph

°F

Lódz temperature yesterday

Maximum temperature yesterday: 77 °F (at 1:00 AM)
Minimum temperature yesterday: 51 °F (at 10:00 PM)
Average temperature yesterday: 65 °F

Past Weeks' High & Low Weather Summary

 TemperatureHumidityPressure
High94 °F (Aug 31, 4:00 PM)96% (Aug 26, 7:00 AM)30.35 "Hg (Aug 26, 7:00 AM)
Low48 °F (Sep 3, 1:00 AM)25% (Aug 31, 5:00 PM)29.67 "Hg (Sep 1, 7:00 PM)
Average68 °F58%30.06 "Hg
* Reported Aug 19 10:00 PM — Sep 3 10:00 PM, Lódz, Weather by CustomWeather, © 2015

Note: Actual official high and low records may vary slightly from our data, if they occured in-between our weather recording intervals... More about our weather records

Advertising

Lódz weather history for previous 24 hours

 ConditionsComfort  
Time TempWeatherWind HumidityBarometerVisibility
10:00 PM
Thu, Sep 3
62 °FPassing clouds.2 mph59%29.95 "Hg12 mi
9:00 PM64 °FPassing clouds.3 mph54%29.95 "Hg12 mi
8:00 PM65 °FPassing clouds.2 mph54%29.96 "Hg12 mi
7:00 PM68 °FPartly sunny.2 mph48%29.95 "Hg12 mi
6:00 PM69 °FOvercast.2 mph47%29.95 "Hg12 mi
5:00 PM70 °FOvercast.2 mph45%29.95 "Hg12 mi
4:00 PM69 °FOvercast.N/A43%29.96 "Hg12 mi
3:00 PM70 °FOvercast.N/A41%29.97 "Hg12 mi
2:00 PM69 °FOvercast.N/A39%29.99 "Hg12 mi
1:00 PM69 °FOvercast.2 mph43%29.99 "Hg12 mi
12:00 PM68 °FPartly sunny.2 mph43%30.00 "Hg12 mi
11:00 AM68 °FPartly sunny.1 mph47%30.01 "Hg12 mi
10:00 AM66 °FPartly sunny.1 mph52%30.01 "Hg12 mi
9:00 AM64 °FScattered clouds.2 mph55%30.02 "Hg12 mi
8:00 AM59 °FOvercast.1 mph73%30.02 "Hg12 mi
7:00 AM55 °FOvercast.1 mph86%30.02 "Hg12 mi
5:00 AM53 °FOvercast.No wind88%30.02 "Hg12 mi
4:00 AM52 °FOvercast.1 mph89%30.02 "Hg12 mi
3:00 AM51 °FOvercast.No wind88%30.02 "Hg12 mi
2:00 AM50 °FOvercast.1 mph90%30.03 "Hg12 mi
1:00 AM48 °FOvercast.No wind91%30.04 "Hg12 mi
12:00 AM48 °FPassing clouds.No wind90%30.03 "Hg12 mi
Weather by CustomWeather, © 2015

See weather overviewHow to use our weather pages